TimePDT,TemperatureF,Dew PointF,Humidity,Sea Level PressureIn,VisibilityMPH,Wind Direction,Wind SpeedMPH,Gust SpeedMPH,PrecipitationIn,Events,Conditions,WindDirDegrees,DateUTC
12:56 AM,53.1,51.1,93,30.12,9.0,Calm,Calm,-,N/A,,Clear,0,2013-05-11 07:56:00
1:21 AM,51.8,51.8,100,30.12,7.0,WNW,4.6,-,N/A,,Partly Cloudy,300,2013-05-11 08:21:00
1:56 AM,52.0,51.1,97,30.11,5.0,WNW,4.6,-,N/A,,Mostly Cloudy,300,2013-05-11 08:56:00
2:56 AM,53.1,52.0,96,30.09,5.0,NW,3.5,-,N/A,,Overcast,310,2013-05-11 09:56:00
3:15 AM,53.6,53.6,100,30.09,3.0,Calm,Calm,-,N/A,,Overcast,0,2013-05-11 10:15:00
3:29 AM,53.6,51.8,94,30.09,1.8,Calm,Calm,-,N/A,,Overcast,0,2013-05-11 10:29:00
3:56 AM,52.0,52.0,100,30.08,2.0,Calm,Calm,-,N/A,,Overcast,0,2013-05-11 10:56:00
4:04 AM,51.8,51.8,100,30.08,1.0,Calm,Calm,-,N/A,,Overcast,0,2013-05-11 11:04:00
4:38 AM,51.8,51.8,100,30.07,0.5,Calm,Calm,-,N/A,Fog,Fog,0,2013-05-11 11:38:00
4:56 AM,52.0,52.0,100,30.07,0.2,Calm,Calm,-,N/A,Fog,Fog,0,2013-05-11 11:56:00
5:27 AM,51.8,51.8,100,30.07,0.5,Calm,Calm,-,N/A,Fog,Fog,0,2013-05-11 12:27:00
5:45 AM,51.8,51.8,100,30.06,1.0,Calm,Calm,-,N/A,,Mist,0,2013-05-11 12:45:00
5:56 AM,52.0,51.1,97,30.07,1.5,Calm,Calm,-,N/A,,Overcast,0,2013-05-11 12:56:00
6:25 AM,51.8,50.0,94,30.07,7.0,WNW,3.5,-,N/A,,Scattered Clouds,300,2013-05-11 13:25:00
6:56 AM,52.0,52.0,100,30.07,9.0,Calm,Calm,-,N/A,,Partly Cloudy,0,2013-05-11 13:56:00
7:56 AM,57.0,53.1,87,30.06,10.0,Calm,Calm,-,N/A,,Clear,0,2013-05-11 14:56:00
8:56 AM,66.0,55.0,68,30.06,10.0,Calm,Calm,-,N/A,,Clear,0,2013-05-11 15:56:00
9:56 AM,77.0,57.0,50,30.05,10.0,WNW,6.9,-,N/A,,Clear,300,2013-05-11 16:56:00
10:56 AM,82.0,57.0,42,30.04,10.0,WNW,9.2,-,N/A,,Clear,300,2013-05-11 17:56:00
11:56 AM,78.1,55.0,45,30.05,10.0,WNW,12.7,-,N/A,,Clear,290,2013-05-11 18:56:00
12:56 PM,78.1,55.0,45,30.05,10.0,NW,17.3,-,N/A,,Clear,310,2013-05-11 19:56:00
1:56 PM,79.0,54.0,42,30.05,10.0,NW,15.0,-,N/A,,Clear,320,2013-05-11 20:56:00
2:56 PM,82.9,52.0,34,30.03,10.0,NW,18.4,-,N/A,,Clear,320,2013-05-11 21:56:00
3:56 PM,75.0,52.0,44,30.04,10.0,NW,20.7,27.6,N/A,,Partly Cloudy,320,2013-05-11 22:56:00
4:56 PM,71.1,53.1,53,30.04,10.0,NW,11.5,-,N/A,,Scattered Clouds,320,2013-05-11 23:56:00
5:56 PM,69.1,53.1,57,30.04,10.0,WNW,8.1,-,N/A,,Clear,300,2013-05-12 00:56:00
6:56 PM,64.0,53.1,67,30.06,10.0,North,4.6,-,N/A,,Clear,350,2013-05-12 01:56:00
7:56 PM,57.0,52.0,83,30.08,10.0,NW,3.5,-,N/A,,Clear,310,2013-05-12 02:56:00
8:56 PM,57.0,52.0,83,30.08,10.0,Calm,Calm,-,N/A,,Clear,0,2013-05-12 03:56:00
9:56 PM,55.0,52.0,89,30.10,10.0,Calm,Calm,-,N/A,,Clear,0,2013-05-12 04:56:00
10:56 PM,53.1,51.1,93,30.11,9.0,WNW,4.6,-,N/A,,Clear,300,2013-05-12 05:56:00
11:56 PM,53.1,52.0,96,30.11,8.0,Calm,Calm,-,N/A,,Clear,0,2013-05-12 06:56:00